Regional Weather Roundup
Issued by NWS Jackson, KY

Home | Current Version | Previous Version | Text Only | Print | Product List | Glossary On
Versions: 1 2 3 4 5 6 7 8 9 10 11 12 13 14 15 16 17 18 19 20 21 22 23 24 25 26 27 28 29 30 31 32 33 34 35 36 37 38 39 40 41 42 43 44 45 46 47 48 49 50
000
ASUS43 KJKL 281219
RWRJKL

EAST KENTUCKY HOURLY WEATHER ROUNDUP
NATIONAL WEATHER SERVICE JACKSON KY
700 AM EST FRI NOV 28 2014

NOTE: "FAIR" INDICATES FEW OR NO CLOUDS BELOW 12,000 FEET WITH
NO SIGNIFICANT WEATHER AND/OR OBSTRUCTIONS TO VISIBILITY.

* THESE REPORTS ARE NOT UNDER NWS QUALITY CONTROL AND MAY NOT
  REPORT WEATHER SUCH AS PRECIPITATION AND FOG.

KYZ079-080-083-085-087-088-110-112-115-119-120-281300
...EASTERN KENTUCKY...

CITY           SKY/WX    TMP DP  RH WIND       PRES   REMARKS
JACKSON        CLOUDY    26  16  65 W6        30.38R WCI  19
6HR MIN TEMP:  26; 6HR MAX TEMP:  28;

LONDON         CLOUDY    26  15  63 W3        30.41R
6HR MIN TEMP:  24; 6HR MAX TEMP:  28;

SOMERSET*      CLOUDY    25  18  74 CALM      30.44S
MONTICELLO*    MOCLDY    27  21  80 CALM      30.46R
6HR MIN TEMP:  27; 6HR MAX TEMP:  29;

HARLAN APT*    CLOUDY    27  19  74 W7        30.38R WCI  19
BLACK MTN*       N/A     16  16 100 NE1         N/A
PIKEVILLE APT* CLOUDY    27  18  69 W5        30.35S WCI  21
BIG SANDY*     CLOUDY    28  19  69 CALM      30.37R
6HR MIN TEMP:  28; 6HR MAX TEMP:  29;

MOREHEAD APT*  CLOUDY    25  19  80 CALM      30.42S
ASHLAND*       CLOUDY    28  16  59 W7        30.40R WCI  21
$$

KYZ035-036-041-042-044-050-067-078-099-281300
...CENTRAL KENTUCKY...

CITY           SKY/WX    TMP DP  RH WIND       PRES   REMARKS
MT STERLING*   CLOUDY    27  21  80 CALM      30.42S
FLEMING/MASON* CLOUDY    23  21  93 W3        30.42S
DANVILLE*      MOCLDY    27  19  74 CALM      30.42S
RICHMOND*      CLOUDY    27  19  74 W5        30.40F WCI  21
LEXINGTON      CLOUDY    25  21  85 W5        30.40F WCI  19
6HR MIN TEMP:  24; 6HR MAX TEMP:  27;

FRANKFORT      CLOUDY    26  18  71 W3        30.40F
6HR MIN TEMP:  23; 6HR MAX TEMP:  28;

$$

KYZ091>093-OHZ055-061-077-WVZ005-015-034-035-042-281300
...SOUTHERN OHIO/WEST VIRGINIA...

CITY           SKY/WX    TMP DP  RH WIND       PRES   REMARKS
COVINGTON      CLOUDY    27  19  72 W8        30.39R WCI  19
COLUMBUS       PTCLDY    22  17  81 CALM      30.37R
DAYTON         MOCLDY    20  16  84 W5        30.39R WCI  13
WILMINGTON     CLOUDY    21  16  81 W3        30.38R
HUNTINGTON     CLOUDY    27  20  75 NW3       30.38S
CHARLESTON     CLOUDY    28  16  60 NW8       30.37R WCI  20
PINEVILLE*     MOCLDY    24  23  97 MISG      30.37R
BECKLEY        CLOUDY    22  17  81 N12       30.25R WCI  10
BLUEFIELD      CLOUDY    23  14  68 NW12      30.25R WCI  12
$$

VAZ002-007-008-TNZ017-027-036-066-071-281300
...SOUTHWEST VIRGINIA/EAST TENNESSEE...

CITY           SKY/WX    TMP DP  RH WIND       PRES   REMARKS
WISE*          CLOUDY    25  18  74 W5        30.29R WCI  19
JONESVILLE*    CLOUDY    28  18  64 CALM      30.40R
ABINGDON*      CLOUDY    28  21  74 NW6       30.31R WCI  22
BRISTOL        MOCLDY    27  17  66 NW8       30.35R WCI  19
KNOXVILLE      PTCLDY    25  21  85 SW3       30.40R
OAK RIDGE      CLEAR     25  20  81 CALM      30.42R
CROSSVILLE     PTCLDY    21  17  84 W3        30.36R
NASHVILLE      PTCLDY    23  20  88 S3        30.46S
$$

...KEY TO REMARKS...
VSB - VISIBILITY IN MILES
WCI - WIND CHILL INDEX
HX  - HEAT INDEX

$$



USA.gov is the U.S. government's official web portal to all federal, state and local government web resources and services.